#timestamp,LO_Frequency,Hit,StdDev 
1576033215.6,286046997.9,N
1576033235.5,286046999.6,N
1576033255.3,286046996.7,N
1576033275.1,286046996.5,N
1576033295.9,286046996.9,N
1576033315.7,286046998.0,N
1576033335.6,286046997.7,N
1576033355.4,286046999.4,N
1576033375.2,286046999.1,N
1576033395.1,286046999.3,N
1576033396.0,286046999.3,N
1576033415.8,286046998.2,N
1576033435.6,286046998.8,N
1576033455.5,286046998.1,N
1576033475.3,286046998.8,N
1576033495.2,286046997.1,N
1576033515.9,286046997.4,N
1576033535.7,286046997.8,N
1576033555.6,286046997.7,N
1576033575.4,286046997.1,N
1576033595.2,286046996.5,Y
1576033615.1,286046996.6,P
1576033616.0,286046996.6,P
1576033635.8,286046997.4,P
1576033655.7,286046997.8,Y
1576033675.5,286047000.4,P
1576033695.3,286046998.6,N
1576033715.2,286046998.9,N
1576033735.0,286046998.1,N
1576033735.9,286046998.1,N
1576033755.8,286046998.4,N
1576033775.6,286047000.5,N
1576033795.4,286047001.2,N
1576033815.3,286047001.2,N
1576033835.1,286047000.7,N
1576033855.8,286047000.8,N
1576033875.7,286046998.1,N
1576033895.5,286046998.5,N
1576033915.4,286046999.6,N
1576033935.2,286046998.3,N
1576033955.0,286046998.5,N
1576033955.9,286046998.5,N
1576033975.8,286047000.4,N
1576033995.6,286047000.3,N
1576034015.4,286047000.0,N
1576034035.3,286046998.5,N
1576034055.1,286047001.1,N
1576034075.9,286047001.1,N
1576034095.7,286046997.3,N
1576034115.5,286046997.1,N
1576034135.4,286046997.5,N
1576034155.2,286046997.3,N
1576034175.0,286046997.1,N
1576034176.0,286046997.1,N
1576034195.8,286046997.2,N
1576034215.6,286046997.3,N
1576034235.5,286046997.5,N
1576034255.3,286046997.3,N
1576034275.1,286046997.2,N
1576034295.9,286046995.0,Y
1576034315.7,286046998.9,P
1576034335.6,286046997.2,P
1576034355.4,286046997.2,P
1576034375.2,286046997.1,Y
1576034395.1,286046998.4,P
1576034396.0,286046998.4,P
1576034415.8,286046998.4,P
1576034435.7,286046997.0,Y
1576034455.5,286046999.9,P
1576034475.3,286046999.8,N
1576034495.2,286047000.5,N
1576034515.0,286047001.0,N
1576034515.9,286047001.0,N
1576034535.7,286047000.5,N
1576034555.6,286047000.8,N
1576034575.4,286047000.6,N
1576034595.3,286047001.2,N
1576034615.6,286046998.7,N
1576034635.4,286047000.9,N
1576034655.3,286047000.9,N
1576034675.1,286047000.6,N
1576034695.8,286047000.3,N
1576034715.7,286047000.5,N
1576034735.5,286047002.3,N
1576034755.4,286047002.7,N
1576034775.2,286046999.7,N
1576034795.0,286046999.7,N
1576034795.9,286046999.7,N
1576034815.8,286047002.3,N
1576034835.6,286047002.4,N
1576034855.4,286047002.8,N
1576034875.3,286047000.3,N
1576034895.1,286047000.8,N
1576034915.9,286046998.5,N
1576034935.7,286046998.5,N
1576034955.5,286046998.9,N
1576034975.4,286047001.0,N
1576034995.2,286046998.1,N
1576035015.1,286047002.8,N
1576035016.0,286047002.8,N
1576035035.8,286047000.9,N
1576035055.6,286046999.7,N
1576035075.5,286047002.4,N
1576035095.3,286047002.2,N
1576035115.1,286047002.5,N
1576035135.9,286047001.8,N
1576035155.7,286047002.0,N
1576035175.6,286047001.7,N
1576035195.4,286047001.6,N
1576035215.2,286047001.8,N
1576035235.1,286047001.6,N
1576035236.0,286047001.6,N
1576035255.8,286047001.5,N
1576035275.7,286047001.4,N
1576035295.5,286047004.2,N
1576035315.3,286047001.3,N
1576035335.2,286047004.2,N
1576035355.0,286047003.7,N
1576035355.9,286047003.7,N
1576035375.7,286047007.2,Y
1576035395.6,286047003.4,P
1576035415.4,286047003.0,P
1576035435.3,286047004.7,P
1576035455.1,286047006.7,Y
1576035475.8,286047003.2,P
1576035495.7,286047004.1,P
1576035515.5,286047001.6,P
1576035535.4,286047003.9,Y
1576035555.2,286047000.0,P
1576035575.0,286047000.0,N
1576035575.9,286047000.0,N
1576035595.8,286047001.1,N
1576035615.6,286046999.4,N
1576035635.4,286046998.7,N
1576035655.3,286046998.2,N
1576035675.1,286046998.1,N
1576035695.9,286047001.0,N
1576035715.7,286046999.0,N
1576035735.5,286046998.9,N
1576035755.4,286046997.7,N
1576035775.2,286046997.5,N
1576035795.0,286046996.7,N
1576035795.9,286046996.7,N
1576035815.8,286046999.4,N
1576035835.6,286047001.2,N
1576035855.5,286047000.9,N
1576035875.3,286046999.0,N
1576035895.1,286046999.0,N
1576035915.9,286046996.8,N
1576035935.7,286046999.2,N
1576035955.5,286046998.1,N
1576035975.4,286047000.9,N
1576035995.2,286046999.3,N
1576036015.1,286046998.7,N
1576036016.0,286046998.7,N
1576036035.8,286047001.1,N
1576036055.6,286046999.4,N
1576036075.5,286047000.7,N
1576036095.3,286046999.4,N
1576036115.1,286046998.7,N
1576036135.9,286046996.5,N
1576036155.7,286046999.1,N
1576036175.6,286046996.5,N
1576036195.4,286046996.5,N
1576036215.2,286047000.3,N
1576036235.1,286046998.2,N
1576036236.0,286046998.2,N
1576036255.8,286046998.1,N
1576036275.7,286046998.2,N
1576036295.5,286047000.6,N
1576036315.3,286047000.2,N
1576036335.2,286047002.4,N
1576036355.9,286047002.1,N
1576036375.7,286047000.3,N
1576036395.6,286047000.9,N
1576036415.4,286047001.2,N
1576036465.3,286047000.5,E
1576036475.2,286047000.5,N
1576036495.0,286047002.8,P
1576036495.9,286047002.8,N
1576036515.8,286047000.1,N
1576036535.6,286047002.7,N
1576036555.5,286046998.2,N
1576036575.3,286046998.3,N
1576036595.1,286047000.5,N
1576036615.9,286047000.8,N
1576036635.7,286047000.7,N
1576036655.5,286047000.6,N
1576036675.4,286047001.1,N
1576036695.2,286046998.2,N
1576036715.1,286046999.8,N
1576036716.0,286046999.8,N
1576036735.8,286047000.1,N
1576036755.6,286046999.8,N
1576036775.5,286046999.9,N
1576036795.3,286047001.6,N
